Location: Ballingbuur
(53.0000°N, 5.7667°E)
Time: 20:21:28
(UTC+00:00)

Geosat - Pass Details

Date: 29 November 2020
Orbit: 762 x 766 km, 108.0° (Epoch: 25 January)

Event Time Altitude Azimuth Distance (km) Brightness Sun altitude
Rises 06:16:00 0° 154° (SSE) 3,216 8.1 -9.8°
Reaches altitude 10° 06:18:17 10° 157° (SSE) 2,294 7.2 -9.5°
Maximum altitude 06:23:16 69° 240° (WSW) 817 4.0 -8.8°
Drops below altitude 10° 06:28:17 10° 325° (NW) 2,311 6.0 -8.1°
Enters shadow 06:29:14 - 326° (NW) 2,692 6.3 -8.0°
